Погода в Балхаше

Погода в Балхаше : погода сейчас, прогноз погоды и архив. Всё, что Вы хотите узнать о погоде в Балхаше!

Хотите узнать прогноз погоды в Балхаше? Тогда Вам сюда: Погода в Балхаше

Поиск расширенной информации на нашем сайте:

Другие новости

Новости СМИ2

Главная страница сайта

Новости сайта

02.10.2013

Напоминаем, что на нашем новом сайте вы можете получить высокодетализированные прогнозы погоды по пунктам России, СНГ и мира (включающие важные для авиации метеовеличины, такие как направление и скорость ветра, видимость, явления погоды, количество и форма облачности, нижняя и верхняя граница облачности), а также ознакомиться с разнообразными материалами по авиационной метеорологии и подборкой полезных ссылок на эту тему.

Сайт Метеоцентр.Азия посвящён разработке технологий оптимизации авиаметеорологического обслуживания, включая проектирование и перспективное создание нескольких автоматизированных авиаметеорологических систем:
- система выпуска высокодетальных прогностических карт явлений погоды для нижнего воздушного пространства по России и ближнему зарубежью;
- система верификации прогнозов TAF (выпускаемых синоптиками официальных АМСГ РФ и ближнего зарубежья) и AUTOTAF (выпускаемых сайтом Метеоцентр.Азия) - выявление ошибок, онлайн-сопоставление с фактической погодой METAR, автоматическое внесение коррективов в прогнозы при резком отклонении фактической погоды от прогноза, подсчёт оправдываемости прогнозов по элементам и в целом;
- система обработки, анализа и отображения авиаметеорологической информации для применения провайдерами метеорологической информации.

Рекомендуем: https://elites.studio/blog/professionalno-i-eksklyuzivno-sozdaem-sait/ создание эксклюзивного сайта.

Погода в Балхаше - сегодня

Время (UTC), дата Ветер
(°,м/с) 
Видим.   Явления Облачность Т
(°С)
Тd
(°С)
f(%) Тe
(°С)
Pmin
(гПа)
dP
(гПа)
Po
(мм)
O2
(г/м3)
Тmin Tmax R s Состояние
почвы
15 21.01.17 230 (ЮЗ) 10 км  снежные зёрна  10/10 600 м 
[St]
-4.8 -6.2 90 -7  1027.9  1.2  738  303    -3.8  0.3     
18 21.01.17 250 (З) 10 км  снежные зёрна  10/10 600 м 
[St]
-4.7 -7.7 79 -6  1027.3  -0.6  737  303    -3.8  0.3     
21 21.01.17 270 (З) 10 км  снежные зёрна  10/10 600 м 
[St]
-5.2 -7.7 83 -5  1027.5  0.2  737  304           
00 22.01.17 230 (ЮЗ) 10 км  снежные зёрна  10/10 600 м 
[St]
-6 -7.9 86 -6  1027.8  0.1  737  305           
03 22.01.17 050 (СВ) 10 км  снежные зёрна  10/10 600 м 
[St]
-5.8 -6.9 92 -5  1027.5  -0.2  737  304      0.2  12  равномерный
сухой снег
100% 
06 22.01.17 110 (В) 2000 м  снег  10/10 600 м 
[Ns]
-5.2 -6.2 93 -8  1026.4  -1  736  303  -6    0.2     
09 22.01.17 090 (В) 4000 м  слаб. снег  10/10 1000 м 
[Ns]
-5.1 -6.4 91 -8  1023.9  -2.4  735  302           
12 22.01.17 140 (ЮВ) 10 км  {снег}  10/10 600 м 
[St]
-2.1 -3.3 91 -5  1022.2  -1.1  734  298           
15 22.01.17 140 (ЮВ) 10 км    10/10 600 м 
[St]
-2.4 -3.3 94 -5  1021.9  -0.3  734  299    -1.5     
18 22.01.17 090 (В) 10 км    10/10 1000 м 
[Sc]
-3 -4 93 -5  1020.9  -1.1  733  299    -1.5     
21 22.01.17 140 (ЮВ) 10 км  слаб. снег  10/10 1000 м 
[Ns]
-5.1 -6.1 93 -6  1019.7  -1.5  732  301           
00 23.01.17 140 (ЮВ) 1000 м  сильн. снег  10/10 1000 м 
[Ns]
-2.2 -2.5 98 -6  1017.2  -1.9  730  297           
03 23.01.17 270 (З) 4000 м  слаб. снег  10/10 1000 м 
[Ns]
+0.1 -0.5 96 -2  1016.9  0.1  730  294      18  равномерный
сухой снег
100% 
06 23.01.17 230 (ЮЗ) 10  4000 м  дымка{снег}  8/0 средняя 
[Ac trans]
+0.1 -1 92 -5  1017.4  0.5  731  294  -5.3       
09 23.01.17 270 (З) 2000 м  слаб. ливневой снег  10/10 600 м кучево-дожд. 
[Cb cap]
-2.5 -3.8 91 -7  1020.2  2.2  732  298           
12 23.01.17 270 (З) 10 км  {ливн. осадки}  4/0 средняя, верхняя 
[Ac trans|Cc]
-6.2 -9.7 76 -10  1024.6  3.6  735  304           
15 23.01.17 270 (З) 10 км    ясно 
-11.8 -15.3 75 -17  1028.1  2.4  737  312    +1  0.2     
18 23.01.17 тихо ()   10 км    ясно 
-17.2 -19.1 85 -17  1030.7  1.5  738  319    +1  0.2     
21 23.01.17 тихо ()   1000 м  слаб. снег  10/10 1000 м 
[Ns]
-19.1 -21.3 83 -19  1032.6  1.5  739  322           
00 24.01.17 тихо ()   4000 м  снежные зёрна  6/6 600 м 
[St]
-20.3 -22.6 82 -20  1033.5  0.6  740  324           
03 24.01.17 270 (З) 4000 м  снежные зёрна  9/8 600 м средняя 
[St|Ac cuf]
-21.2 -23.3 83 -22  1035.2  1.5  741  325      0.0  17  равномерный
сухой снег
100% 
06 24.01.17 тихо ()   10 км  в посл. час снег  10/6 1000 м средняя, верхняя 
[Sc|Ac trans|Ci fib]
-14.6 -16.6 85 -15  1035.7  1.7  742  317  -22.1    0.0     
09 24.01.17 тихо ()   10 км  дым  9/0 средняя 
[Ac trans]
-12 -13.4 89 -12  1035.6  0.3  742  314           
12 24.01.17 тихо ()   10 км  в посл. час снег  10/0 средняя, верхняя 
[Ac As|Ci sp]
-12.2 -13.8 88 -12  1037.1  1.4  743  315           
15 24.01.17 тихо ()   10 км  в посл. час ливневой снег  5/5 1000 м 
[Sc]
-12.7 -14.3 88 -13  1039.5  2.2  745  316    -10.5  0.2     
Время (UTC), дата Ветер
(°,м/с) 
Видим.   Явления Облачность Т
(°С)
Тd
(°С)
f(%) Тe
(°С)
Pmin
(гПа)
dP
(гПа)
Po
(мм)
O2
(г/м3)
Тmin Tmax R s Состояние
почвы

Для получения пояснительной информации подведите курсор к названию столбца.

ПОГОДА в Балхаше - архив

Всё, что Вы хотите узнать о погоде в Балхаше - удобно и подробно!

Выберите нужную дату (начиная с 1 января 2015* года) и нажмите кнопку "Найти".
Будут отображены архивные сводки погоды по пункту Балхаш, начиная с указанной даты.


Отображать данные в формате CSV (для использования в таблицах Excel)


Внимание! Наш архив погоды предназначен исключительно для личного некоммерческого использования в познавательных целях. Если Вам необходимы официальные справки о состоянии погоды (для производственных, юридических, коммерческих и т.п. целей), обращайтесь в органы Росгидромета.

*Примечание: данная дата относится к архиву по метеостанциям СССР (Россия, СНГ, Балтия).
Архив по метеостанциям Зарубежной Европы и Азии (кроме Китая) хранится 10 дней, по другим регионам земного шара (Китай, Африка, Америка, Австралия, Океания) - 1 день.

Балхаш - район местоположения метеостанции


Название, широта, долгота, высота метеостанции:
Балхаш 46.8°ш. 75.1°д. 350 м над ур. моря [Казахстан]

Дополнительная информация

В oтличие oт бoльшинства пoгoдных сайтoв мы публикуем пoдрoбную метеoинфoрмацию в детальнoм прoфессиoнальнoм фoрмате.

Характеристики температуры и влажнoсти вoздуха измеряются на высoте 2 м в тени вдали oт зданий и деревьев.
Скoрoсть ветра измеряется на высoте 10 м (на урoвне рoста челoвека скoрoсть ветра ниже в 1.5-2 раза). Если метеoстанция нахoдится в гoрoде или в лесу, тo скoрoсть ветра занижена на 2-4 м/с пo сравнению с oткрытым местoм. Скoрoсть ветра над акватoриями крупных рек и oзёр, а также на вершинах хoлмoв на 2-5 м/с выше, чем в oбычных услoвиях.
Атмoсфернoе давление в разных тoчках местнoсти мoжет значительнo oтличаться oт давления на метеoстанции, в зависимoсти oт услoвий рельефа (при пoдъёме на 10 м давление пoнижается примернo на 1 мм рт.ст.).